Location: Lancaster
(54.0470°N, 2.8020°W)
Time: 23:17:05
(UTC+01:00)

COSMOS 2428 - Visible Passes

Search period start: 28 August 2015 00:00
Search period end: 07 September 2015 00:00
Orbit: 844 x 857 km, 71.0° (Epoch: 28 August)

Date Brightness Start Highest point End Pass type
(mag) Time Alt. Az. Time Alt. Az. Time Alt. Az.
28 Aug 4.9 02:09:54 12° ESE 02:11:54 14° E 02:14:50 10° ENE visible
28 Aug 2.9 03:51:54 26° SSW 03:55:13 67° ESE 04:00:55 10° NE visible
29 Aug 4.8 01:58:04 12° ESE 01:59:33 14° E 02:02:29 10° ENE visible
29 Aug 2.9 03:40:04 31° S 03:42:52 67° ESE 03:48:35 10° NE visible
29 Aug 3.7 05:22:21 10° WSW 05:27:35 35° NW 05:32:48 10° NNE visible
30 Aug 4.8 01:46:12 13° ESE 01:47:13 14° E 01:50:08 10° ENE visible
30 Aug 2.9 03:28:13 36° S 03:30:32 67° ESE 03:36:14 10° NE visible
30 Aug 3.7 05:10:13 11° WSW 05:15:14 35° NW 05:20:27 10° NNE visible
31 Aug 4.8 01:34:18 14° ESE 01:34:53 14° E 01:37:47 10° ENE visible
31 Aug 2.9 03:16:19 42° S 03:18:12 67° ESE 03:23:54 10° NE visible
31 Aug 3.7 04:58:19 13° WSW 05:02:54 35° NW 05:08:07 10° NNE visible
01 Sep 4.8 01:22:23 14° E 01:22:32 14° E 01:25:26 10° ENE visible
01 Sep 2.8 03:04:23 48° S 03:05:51 66° ESE 03:11:33 10° NE visible
01 Sep 3.7 04:46:24 15° W 04:50:33 35° NW 04:55:46 10° NNE visible
02 Sep 4.8 01:10:26 14° E 01:10:26 14° E 01:13:05 10° ENE visible
02 Sep 2.8 02:52:26 54° SSE 02:53:31 66° ESE 02:59:12 10° NE visible
02 Sep 3.7 04:34:27 17° W 04:38:13 35° NW 04:43:26 10° NNE visible
03 Sep 4.8 00:58:28 14° E 00:58:28 14° E 01:00:44 10° ENE visible
03 Sep 2.7 02:40:28 60° SSE 02:41:10 66° ESE 02:46:52 10° NE visible
03 Sep 3.8 04:22:28 19° W 04:25:52 35° NW 04:31:05 10° NNE visible
04 Sep 4.9 00:46:28 13° E 00:46:28 13° E 00:48:23 10° ENE visible
04 Sep 2.7 02:28:28 64° SE 02:28:50 66° ESE 02:34:31 10° NE visible
04 Sep 3.8 04:10:28 21° W 04:13:32 35° NW 04:18:44 10° NNE visible
05 Sep 4.9 00:34:27 13° E 00:34:27 13° E 00:36:02 10° ENE visible
05 Sep 2.7 02:16:27 66° ESE 02:16:29 66° ESE 02:22:11 10° NE visible
05 Sep 3.8 03:58:27 23° W 04:01:11 35° NW 04:06:24 10° NNE visible
05 Sep 4.8 05:43:39 10° NW 05:47:14 16° NNW 05:50:45 10° NNE visible
06 Sep 4.9 00:22:25 13° E 00:22:25 13° E 00:23:41 10° ENE visible
06 Sep 2.8 02:04:25 65° E 02:04:25 65° E 02:09:50 10° NE visible
06 Sep 3.8 03:46:25 25° W 03:48:50 35° NW 03:54:03 10° NNE visible
06 Sep 4.9 05:31:19 10° NW 05:34:53 16° NNW 05:38:24 10° NNE visible
